When you browse on this site, cookies collect data to enhance your experience and personalize the content and advertising you see.
Visit our Privacy Policy to learn more. By continuing to use the site, you agree to this use of cookies and data.
  • In Spain
  • List of Countries
  • For 7 days
  • Water Temperature
  • Weather Map
  • Weather Widgets
  • user-avatar
    Login

    Hourly Weather Penaflor

    Today, 5 April, Sunday

    Time Temperature Precipitation Wind Pressure Humidity
    00:00 +12°C° 0 mm 0 mps 727 mmHg 83%
    01:00 +12°C° 0 mm 0 mps 727 mmHg 84%
    02:00 +12°C° 0 mm 0 mps 727 mmHg 84%
    03:00 +12°C° 0 mm 0 mps 727 mmHg 83%
    04:00 +13°C° 0 mm 1 mps 727 mmHg 82%
    05:00 +13°C° 0 mm 0 mps 728 mmHg 79%
    06:00 +14°C° 0 mm 0 mps 728 mmHg 75%
    07:00 +15°C° 0 mm 0 mps 729 mmHg 71%
    08:00 +19°C° 0 mm 1 mps 729 mmHg 62%
    09:00 +20°C° 0 mm 2 mps 730 mmHg 54%
    10:00 +24°C° 0 mm 2 mps 730 mmHg 45%
    11:00 +25°C° 0 mm 2 mps 730 mmHg 39%
    12:00 +27°C° 0 mm 2 mps 730 mmHg 33%
    13:00 +28°C° 0 mm 2 mps 730 mmHg 28%
    14:00 +28°C° 0 mm 3 mps 730 mmHg 26%
    15:00 +28°C° 0 mm 3 mps 730 mmHg 25%
    16:00 +28°C° 0 mm 3 mps 730 mmHg 24%
    17:00 +24°C° 0 mm 2 mps 731 mmHg 30%
    18:00 +20°C° 0 mm 2 mps 731 mmHg 37%
    19:00 +18°C° 0 mm 1 mps 731 mmHg 43%
    20:00 +16°C° 0 mm 1 mps 731 mmHg 43%
    21:00 +16°C° 0 mm 1 mps 731 mmHg 42%
    22:00 +15°C° 0 mm 1 mps 731 mmHg 42%
    23:00 +15°C° 0 mm 1 mps 731 mmHg 40%

    Tomorrow, 6 April, Monday

    Time Temperature Precipitation Wind Pressure Humidity
    00:00 +15°C° 0 mm 1 mps 731 mmHg 39%
    01:00 +15°C° 0 mm 1 mps 731 mmHg 37%
    02:00 +15°C° 0 mm 1 mps 731 mmHg 37%
    03:00 +15°C° 0 mm 1 mps 731 mmHg 37%
    04:00 +15°C° 0 mm 1 mps 731 mmHg 36%
    05:00 +16°C° 0 mm 1 mps 731 mmHg 35%
    06:00 +18°C° 0 mm 1 mps 731 mmHg 33%
    07:00 +19°C° 0 mm 1 mps 731 mmHg 31%
    08:00 +22°C° 0 mm 1 mps 731 mmHg 27%
    09:00 +26°C° 0 mm 1 mps 731 mmHg 23%
    10:00 +29°C° 0 mm 1 mps 731 mmHg 19%
    11:00 +30°C° 0 mm 2 mps 731 mmHg 18%
    12:00 +32°C° 0 mm 2 mps 731 mmHg 16%
    13:00 +34°C° 0 mm 3 mps 731 mmHg 15%
    14:00 +34°C° 0 mm 3 mps 730 mmHg 16%
    15:00 +33°C° 0 mm 3 mps 730 mmHg 17%
    16:00 +31°C° 0 mm 3 mps 730 mmHg 18%
    17:00 +28°C° 0 mm 2 mps 730 mmHg 26%
    18:00 +24°C° 0 mm 2 mps 730 mmHg 33%
    19:00 +20°C° 0 mm 1 mps 730 mmHg 41%
    20:00 +19°C° 0 mm 1 mps 730 mmHg 41%
    21:00 +17°C° 0 mm 0 mps 730 mmHg 41%
    22:00 +17°C° 0 mm 0 mps 730 mmHg 41%
    23:00 +16°C° 0 mm 0 mps 729 mmHg 40%

    Day after tomorrow, 7 April, Tuesday

    Time Temperature Precipitation Wind Pressure Humidity
    00:00 +16°C° 0 mm 0 mps 729 mmHg 39%
    01:00 +16°C° 0 mm 0 mps 729 mmHg 38%
    02:00 +16°C° 0 mm 0 mps 729 mmHg 37%
    03:00 +16°C° 0 mm 0 mps 728 mmHg 36%
    04:00 +16°C° 0 mm 0 mps 728 mmHg 35%
    05:00 +17°C° 0 mm 0 mps 729 mmHg 33%
    06:00 +18°C° 0 mm 0 mps 729 mmHg 32%
    07:00 +19°C° 0 mm 0 mps 729 mmHg 30%
    08:00 +22°C° 0 mm 0 mps 729 mmHg 26%
    09:00 +27°C° 0 mm 1 mps 729 mmHg 22%
    10:00 +29°C° 0 mm 2 mps 730 mmHg 18%
    11:00 +31°C° 0 mm 2 mps 730 mmHg 17%
    12:00 +33°C° 0 mm 3 mps 730 mmHg 16%
    13:00 +34°C° 0 mm 3 mps 730 mmHg 14%
    14:00 +33°C° 0 mm 3 mps 729 mmHg 15%
    15:00 +31°C° 0 mm 3 mps 729 mmHg 16%
    16:00 +30°C° 0 mm 3 mps 729 mmHg 18%
    17:00 +27°C° 0 mm 2 mps 729 mmHg 24%
    18:00 +23°C° 0 mm 1 mps 729 mmHg 30%
    19:00 +19°C° 0 mm 1 mps 729 mmHg 36%
    20:00 +17°C° 0 mm 0 mps 729 mmHg 37%
    21:00 +16°C° 0 mm 0 mps 729 mmHg 38%
    22:00 +16°C° 0 mm 0 mps 729 mmHg 40%
    23:00 +16°C° 0 mm 0 mps 729 mmHg 40%

    8 April, Wednesday

    Time Temperature Precipitation Wind Pressure Humidity
    00:00 +15°C° 0 mm 0 mps 728 mmHg 40%
    01:00 +15°C° 0 mm 0 mps 728 mmHg 40%
    02:00 +15°C° 0 mm 0 mps 728 mmHg 40%
    03:00 +15°C° 0 mm 0 mps 728 mmHg 40%
    04:00 +15°C° 0 mm 0 mps 728 mmHg 40%
    05:00 +16°C° 0 mm 0 mps 728 mmHg 38%
    06:00 +17°C° 0 mm 0 mps 729 mmHg 37%
    07:00 +18°C° 0 mm 0 mps 729 mmHg 35%
    08:00 +20°C° 0.1 mm 0 mps 729 mmHg 31%
    09:00 +25°C° 0.1 mm 1 mps 730 mmHg 27%
    10:00 +27°C° 0.1 mm 2 mps 730 mmHg 24%
    11:00 +29°C° 0.1 mm 2 mps 730 mmHg 23%
    12:00 +30°C° 0.1 mm 2 mps 730 mmHg 22%
    13:00 +31°C° 0.1 mm 3 mps 730 mmHg 21%
    14:00 +30°C° 0.1 mm 3 mps 730 mmHg 24%
    15:00 +29°C° 0.1 mm 3 mps 730 mmHg 26%
    16:00 +28°C° 0.1 mm 3 mps 730 mmHg 29%
    17:00 +25°C° 0 mm 2 mps 730 mmHg 39%
    18:00 +21°C° 0 mm 2 mps 730 mmHg 48%
    19:00 +19°C° 0 mm 1 mps 730 mmHg 57%
    20:00 +18°C° 0 mm 1 mps 730 mmHg 59%
    21:00 +15°C° 0 mm 0 mps 730 mmHg 61%
    22:00 +14°C° 0 mm 0 mps 729 mmHg 63%
    23:00 +14°C° 0 mm 0 mps 729 mmHg 64%

    9 April, Thursday

    Time Temperature Precipitation Wind Pressure Humidity
    00:00 +14°C° 0 mm 0 mps 729 mmHg 64%
    01:00 +14°C° 0 mm 0 mps 729 mmHg 64%
    02:00 +14°C° 0 mm 0 mps 729 mmHg 64%
    03:00 +14°C° 0 mm 0 mps 729 mmHg 63%
    04:00 +13°C° 0 mm 0 mps 729 mmHg 63%
    05:00 +14°C° 0 mm 0 mps 729 mmHg 59%
    06:00 +15°C° 0 mm 0 mps 730 mmHg 56%
    07:00 +16°C° 0 mm 0 mps 730 mmHg 52%
    08:00 +21°C° 0 mm 1 mps 730 mmHg 45%
    09:00 +24°C° 0 mm 1 mps 730 mmHg 39%
    10:00 +26°C° 0 mm 2 mps 731 mmHg 32%
    11:00 +28°C° 0 mm 2 mps 731 mmHg 29%
    12:00 +29°C° 0 mm 3 mps 731 mmHg 27%
    13:00 +31°C° 0 mm 3 mps 731 mmHg 25%
    14:00 +29°C° 0 mm 3 mps 731 mmHg 29%
    15:00 +28°C° 0 mm 3 mps 731 mmHg 32%
    16:00 +27°C° 0 mm 3 mps 730 mmHg 36%
    17:00 +22°C° 0 mm 3 mps 730 mmHg 48%
    18:00 +19°C° 0 mm 2 mps 730 mmHg 60%
    19:00 +16°C° 0 mm 1 mps 730 mmHg 72%
    20:00 +15°C° 0 mm 1 mps 730 mmHg 74%
    21:00 +14°C° 0 mm 1 mps 730 mmHg 76%
    22:00 +13°C° 0 mm 0 mps 730 mmHg 78%
    23:00 +12°C° 0 mm 0 mps 730 mmHg 77%

    10 April, Friday

    Time Temperature Precipitation Wind Pressure Humidity
    00:00 +12°C° 0 mm 0 mps 730 mmHg 76%
    01:00 +12°C° 0 mm 0 mps 729 mmHg 75%
    02:00 +12°C° 0 mm 0 mps 729 mmHg 75%
    03:00 +12°C° 0 mm 0 mps 729 mmHg 75%
    04:00 +13°C° 0 mm 1 mps 729 mmHg 75%
    05:00 +12°C° 0 mm 0 mps 729 mmHg 72%
    06:00 +13°C° 0 mm 0 mps 729 mmHg 70%
    07:00 +14°C° 0 mm 0 mps 729 mmHg 67%
    08:00 +19°C° 0 mm 1 mps 729 mmHg 57%
    09:00 +22°C° 0 mm 1 mps 729 mmHg 47%
    10:00 +25°C° 0 mm 2 mps 729 mmHg 37%
    11:00 +26°C° 0 mm 2 mps 729 mmHg 34%
    12:00 +28°C° 0 mm 3 mps 729 mmHg 30%
    13:00 +30°C° 0 mm 3 mps 729 mmHg 27%
    14:00 +28°C° 0 mm 3 mps 729 mmHg 29%
    15:00 +27°C° 0 mm 3 mps 729 mmHg 32%
    16:00 +26°C° 0 mm 3 mps 728 mmHg 35%
    17:00 +23°C° 0 mm 2 mps 728 mmHg 46%
    18:00 +19°C° 0 mm 2 mps 728 mmHg 57%
    19:00 +16°C° 0 mm 1 mps 728 mmHg 68%
    20:00 +15°C° 0 mm 1 mps 728 mmHg 70%
    21:00 +13°C° 0 mm 0 mps 729 mmHg 73%
    22:00 +12°C° 0 mm 0 mps 729 mmHg 76%
    23:00 +12°C° 0 mm 0 mps 728 mmHg 75%
    Show more